Location: *
(33.8649°S, 62.1526°E)
Time: 04:01:36
(UTC+00:00)

Cosmos 1417 Rocket - Pass Details

Date: 17 January 2021
Orbit: 952 x 998 km, 83.0° (Epoch: 27 February)

Event Time Altitude Azimuth Distance (km) Brightness Sun altitude
Exits shadow 16:50:54 15° 357° (N) 2,389 6.2 -19.1°
Maximum altitude 16:56:15 87° 83° (E) 1,008 4.5 -19.9°
Drops below altitude 10° 17:02:42 10° 173° (S) 2,794 7.4 -20.9°
Sets 17:05:15 0° 173° (S) 3,750 8.1 -21.2°
